Time,TemperatureF,DewpointF,PressureIn,WindDirection,WindDirectionDegrees,WindSpeedMPH,WindSpeedGustMPH,Humidity,HourlyPrecipIn,Conditions,Clouds,dailyrainin,SoftwareType,DateUTC
2013-01-05 00:00:00,22.9,18.0,28.40,NNE,33,0.0,4.0,81,0.00,,,0.00,weatherlink.com 1.10,2013-01-05 05:00:00,
2013-01-05 00:16:00,23.7,18.0,28.41,ENE,60,0.0,7.0,80,0.00,,,0.00,weatherlink.com 1.10,2013-01-05 05:16:00,
2013-01-05 00:30:00,23.1,18.0,28.41,ENE,63,0.0,1.0,80,0.00,,,0.00,weatherlink.com 1.10,2013-01-05 05:30:00,
2013-01-05 00:45:00,22.5,18.0,28.41,NE,46,0.0,1.0,81,0.00,,,0.00,weatherlink.com 1.10,2013-01-05 05:45:00,
2013-01-05 01:00:00,22.0,18.0,28.41,NE,47,0.0,1.0,83,0.00,,,0.00,weatherlink.com 1.10,2013-01-05 06:00:00,
2013-01-05 01:15:00,21.7,17.0,28.42,South,171,0.0,1.0,83,0.00,,,0.00,weatherlink.com 1.10,2013-01-05 06:15:00,
2013-01-05 01:30:00,22.5,18.0,28.43,East,96,0.0,1.0,82,0.00,,,0.00,weatherlink.com 1.10,2013-01-05 06:30:00,
2013-01-05 01:45:00,24.5,19.0,28.43,SSW,200,0.0,2.0,78,0.00,,,0.00,weatherlink.com 1.10,2013-01-05 06:45:00,
2013-01-05 02:00:00,25.0,18.0,28.45,SSW,210,0.0,1.0,76,0.00,,,0.00,weatherlink.com 1.10,2013-01-05 07:00:00,
2013-01-05 02:15:00,25.0,18.0,28.45,WSW,253,0.0,4.0,76,0.00,,,0.00,weatherlink.com 1.10,2013-01-05 07:15:00,
2013-01-05 02:30:00,25.5,18.0,28.46,SSW,212,0.0,3.0,74,0.00,,,0.00,weatherlink.com 1.10,2013-01-05 07:30:00,
2013-01-05 02:45:00,25.6,18.0,28.47,NE,51,0.0,1.0,74,0.00,,,0.00,weatherlink.com 1.10,2013-01-05 07:45:00,
2013-01-05 03:00:00,25.4,18.0,28.47,SW,228,0.0,2.0,74,0.00,,,0.00,weatherlink.com 1.10,2013-01-05 08:00:00,
2013-01-05 03:15:00,25.5,18.0,28.48,West,267,0.0,4.0,74,0.00,,,0.00,weatherlink.com 1.10,2013-01-05 08:15:00,
2013-01-05 03:30:00,25.6,18.0,28.48,SSW,200,0.0,3.0,74,0.00,,,0.00,weatherlink.com 1.10,2013-01-05 08:30:00,
2013-01-05 03:45:00,25.7,18.0,28.49,SW,233,0.0,2.0,73,0.00,,,0.00,weatherlink.com 1.10,2013-01-05 08:45:00,
2013-01-05 04:00:00,25.7,18.0,28.49,SW,215,0.0,2.0,73,0.00,,,0.00,weatherlink.com 1.10,2013-01-05 09:00:00,
2013-01-05 04:15:00,25.8,18.0,28.49,SSW,203,0.0,5.0,73,0.00,,,0.00,weatherlink.com 1.10,2013-01-05 09:15:00,
2013-01-05 04:30:00,26.2,18.0,28.50,SW,226,2.0,3.0,72,0.00,,,0.00,weatherlink.com 1.10,2013-01-05 09:30:00,
2013-01-05 04:45:00,26.7,18.0,28.50,WSW,238,1.0,6.0,70,0.00,,,0.00,weatherlink.com 1.10,2013-01-05 09:45:00,
2013-01-05 05:01:00,26.4,18.0,28.52,SSW,207,0.0,3.0,70,0.00,,,0.00,weatherlink.com 1.10,2013-01-05 10:01:00,
2013-01-05 05:16:00,26.3,18.0,28.52,SSE,155,0.0,2.0,70,0.00,,,0.00,weatherlink.com 1.10,2013-01-05 10:16:00,
2013-01-05 05:31:00,26.6,18.0,28.52,SSW,210,1.0,7.0,70,0.00,,,0.00,weatherlink.com 1.10,2013-01-05 10:31:00,
2013-01-05 05:46:00,27.5,18.0,28.52,SW,231,0.0,6.0,68,0.00,,,0.00,weatherlink.com 1.10,2013-01-05 10:46:00,
2013-01-05 06:01:00,27.5,18.0,28.50,SSW,203,2.0,11.0,68,0.00,,,0.00,weatherlink.com 1.10,2013-01-05 11:01:00,
2013-01-05 06:16:00,27.0,18.0,28.50,NNE,23,0.0,1.0,69,0.00,,,0.00,weatherlink.com 1.10,2013-01-05 11:16:00,
2013-01-05 06:31:00,25.0,18.0,28.50,NNE,33,0.0,3.0,74,0.00,,,0.00,weatherlink.com 1.10,2013-01-05 11:31:00,
2013-01-05 06:46:00,24.4,18.0,28.49,North,351,3.0,3.0,77,0.00,,,0.00,weatherlink.com 1.10,2013-01-05 11:46:00,
2013-01-05 07:01:00,24.8,18.0,28.49,ENE,68,4.0,8.0,75,0.00,,,0.00,weatherlink.com 1.10,2013-01-05 12:01:00,
2013-01-05 07:16:00,23.7,18.0,28.50,East,84,1.0,1.0,77,0.00,,,0.00,weatherlink.com 1.10,2013-01-05 12:16:00,
2013-01-05 07:31:00,22.1,17.0,28.51,ENE,72,2.0,2.0,80,0.00,,,0.00,weatherlink.com 1.10,2013-01-05 12:31:00,
2013-01-05 07:46:00,21.5,17.0,28.51,SSE,150,0.0,1.0,82,0.00,,,0.00,weatherlink.com 1.10,2013-01-05 12:46:00,
2013-01-05 08:01:00,22.1,17.0,28.51,East,88,0.0,4.0,82,0.00,,,0.00,weatherlink.com 1.10,2013-01-05 13:01:00,
2013-01-05 08:16:00,21.2,17.0,28.50,East,91,0.0,1.0,82,0.00,,,0.00,weatherlink.com 1.10,2013-01-05 13:16:00,
2013-01-05 08:31:00,20.4,16.0,28.50,East,91,0.0,1.0,84,0.00,,,0.00,weatherlink.com 1.10,2013-01-05 13:31:00,
2013-01-05 08:46:00,20.4,16.0,28.50,East,92,0.0,3.0,83,0.00,,,0.00,weatherlink.com 1.10,2013-01-05 13:46:00,
2013-01-05 09:01:00,19.7,16.0,28.51,East,92,0.0,0.0,86,0.00,,,0.00,weatherlink.com 1.10,2013-01-05 14:01:00,
2013-01-05 09:16:00,20.4,17.0,28.51,East,84,0.0,1.0,87,0.00,,,0.00,weatherlink.com 1.10,2013-01-05 14:16:00,
2013-01-05 09:31:00,22.2,19.0,28.53,East,85,0.0,0.0,86,0.00,,,0.00,weatherlink.com 1.10,2013-01-05 14:31:00,
2013-01-05 09:46:00,25.0,21.0,28.53,ESE,106,0.0,1.0,83,0.00,,,0.00,weatherlink.com 1.10,2013-01-05 14:46:00,
2013-01-05 10:01:00,27.5,21.0,28.54,ESE,106,0.0,0.0,77,0.00,,,0.00,weatherlink.com 1.10,2013-01-05 15:01:00,
2013-01-05 10:16:00,29.9,20.0,28.53,ESE,105,0.0,0.0,67,0.00,,,0.00,weatherlink.com 1.10,2013-01-05 15:16:00,
2013-01-05 10:31:00,32.0,20.0,28.52,SW,221,1.0,2.0,62,0.00,,,0.00,weatherlink.com 1.10,2013-01-05 15:31:00,
2013-01-05 10:46:00,35.1,23.0,28.52,SW,232,4.0,5.0,61,0.00,,,0.00,weatherlink.com 1.10,2013-01-05 15:46:00,
2013-01-05 11:01:00,36.9,21.0,28.52,SW,222,1.0,3.0,52,0.00,,,0.00,weatherlink.com 1.10,2013-01-05 16:01:00,
2013-01-05 11:16:00,39.6,23.0,28.51,SW,222,1.0,1.0,51,0.00,,,0.00,weatherlink.com 1.10,2013-01-05 16:16:00,
2013-01-05 11:31:00,41.2,21.0,28.51,SW,222,0.0,2.0,45,0.00,,,0.00,weatherlink.com 1.10,2013-01-05 16:31:00,
2013-01-05 12:01:00,43.6,21.0,28.49,ESE,104,0.0,1.0,41,0.00,,,0.00,weatherlink.com 1.10,2013-01-05 17:01:00,
2013-01-05 12:17:00,45.9,18.0,28.48,ESE,122,0.0,1.0,33,0.00,,,0.00,weatherlink.com 1.10,2013-01-05 17:17:00,
2013-01-05 12:32:00,45.2,19.0,28.47,East,100,0.0,1.0,35,0.00,,,0.00,weatherlink.com 1.10,2013-01-05 17:32:00,
2013-01-05 12:47:00,46.5,19.0,28.46,SSE,150,0.0,-999.0,33,-99.99,,,0.00,weatherlink.com 1.10,2013-01-05 17:47:00,
2013-01-05 13:02:00,47.8,21.0,28.45,SSE,154,1.0,1.0,34,0.00,,,0.00,weatherlink.com 1.10,2013-01-05 18:02:00,
2013-01-05 13:17:00,47.5,16.0,28.44,SE,124,0.0,1.0,28,0.00,,,0.00,weatherlink.com 1.10,2013-01-05 18:17:00,
2013-01-05 13:32:00,47.4,16.0,28.44,WSW,247,0.0,5.0,28,0.00,,,0.00,weatherlink.com 1.10,2013-01-05 18:32:00,
2013-01-05 13:47:00,47.0,18.0,28.43,WSW,246,6.0,6.0,31,0.00,,,0.00,weatherlink.com 1.10,2013-01-05 18:47:00,
2013-01-05 14:02:00,46.3,18.0,28.44,SW,231,2.0,7.0,32,0.00,,,0.00,weatherlink.com 1.10,2013-01-05 19:02:00,
2013-01-05 14:17:00,46.5,19.0,28.43,SW,228,4.0,7.0,34,0.00,,,0.00,weatherlink.com 1.10,2013-01-05 19:17:00,
2013-01-05 14:32:00,46.7,19.0,28.43,SW,226,2.0,4.0,33,0.00,,,0.00,weatherlink.com 1.10,2013-01-05 19:32:00,
2013-01-05 14:47:00,46.8,19.0,28.43,SW,236,2.0,5.0,33,0.00,,,0.00,weatherlink.com 1.10,2013-01-05 19:47:00,
2013-01-05 15:02:00,46.4,19.0,28.43,SW,231,2.0,6.0,34,0.00,,,0.00,weatherlink.com 1.10,2013-01-05 20:02:00,
2013-01-05 15:17:00,46.5,19.0,28.43,SSW,207,1.0,5.0,34,0.00,,,0.00,weatherlink.com 1.10,2013-01-05 20:17:00,
2013-01-05 15:32:00,45.9,21.0,28.42,SW,231,1.0,4.0,37,0.00,,,0.00,weatherlink.com 1.10,2013-01-05 20:32:00,
2013-01-05 15:47:00,45.4,22.0,28.42,SW,219,0.0,4.0,39,0.00,,,0.00,weatherlink.com 1.10,2013-01-05 20:47:00,
2013-01-05 16:02:00,43.9,20.0,28.42,SW,232,0.0,2.0,39,0.00,,,0.00,weatherlink.com 1.10,2013-01-05 21:02:00,
2013-01-05 16:17:00,42.2,24.0,28.41,SW,226,0.0,0.0,48,0.00,,,0.00,weatherlink.com 1.10,2013-01-05 21:17:00,
2013-01-05 16:32:00,39.7,24.0,28.42,SW,227,0.0,0.0,54,0.00,,,0.00,weatherlink.com 1.10,2013-01-05 21:32:00,
2013-01-05 16:47:00,37.2,24.0,28.41,SW,219,0.0,0.0,60,0.00,,,0.00,weatherlink.com 1.10,2013-01-05 21:47:00,
2013-01-05 17:02:00,35.4,25.0,28.41,SW,219,0.0,0.0,67,0.00,,,0.00,weatherlink.com 1.10,2013-01-05 22:02:00,
2013-01-05 17:17:00,34.6,26.0,28.41,East,98,0.0,1.0,72,0.00,,,0.00,weatherlink.com 1.10,2013-01-05 22:17:00,
2013-01-05 17:32:00,34.5,26.0,28.41,East,98,0.0,1.0,72,0.00,,,0.00,weatherlink.com 1.10,2013-01-05 22:32:00,
2013-01-05 17:47:00,34.0,25.0,28.41,East,98,0.0,1.0,69,0.00,,,0.00,weatherlink.com 1.10,2013-01-05 22:47:00,
2013-01-05 18:02:00,33.0,26.0,28.41,East,97,0.0,0.0,75,0.00,,,0.00,weatherlink.com 1.10,2013-01-05 23:02:00,
2013-01-05 18:17:00,33.2,25.0,28.39,ENE,70,0.0,1.0,73,0.00,,,0.00,weatherlink.com 1.10,2013-01-05 23:17:00,
2013-01-05 18:32:00,33.1,26.0,28.41,East,87,0.0,1.0,75,0.00,,,0.00,weatherlink.com 1.10,2013-01-05 23:32:00,
2013-01-05 18:47:00,33.0,27.0,28.41,East,88,0.0,0.0,77,0.00,,,0.00,weatherlink.com 1.10,2013-01-05 23:47:00,
2013-01-05 19:02:00,33.5,27.0,28.40,East,87,0.0,1.0,77,0.00,,,0.00,weatherlink.com 1.10,2013-01-06 00:02:00,
2013-01-05 19:17:00,33.4,26.0,28.40,East,89,0.0,1.0,75,0.00,,,0.00,weatherlink.com 1.10,2013-01-06 00:17:00,
2013-01-05 19:47:00,33.6,28.0,28.39,ESE,104,0.0,1.0,79,0.00,,,0.00,weatherlink.com 1.10,2013-01-06 00:47:00,
2013-01-05 20:02:00,33.2,28.0,28.40,ESE,105,0.0,0.0,80,0.00,,,0.00,weatherlink.com 1.10,2013-01-06 01:02:00,
2013-01-05 20:17:00,33.2,28.0,28.39,ESE,105,0.0,0.0,81,0.00,,,0.00,weatherlink.com 1.10,2013-01-06 01:17:00,
2013-01-05 20:32:00,33.0,28.0,28.38,ESE,105,0.0,1.0,81,0.00,,,0.00,weatherlink.com 1.10,2013-01-06 01:32:00,
2013-01-05 20:47:00,33.9,28.0,28.38,East,90,0.0,2.0,80,0.00,,,0.00,weatherlink.com 1.10,2013-01-06 01:47:00,
2013-01-05 21:02:00,35.0,28.0,28.39,East,84,0.0,1.0,76,0.00,,,0.00,weatherlink.com 1.10,2013-01-06 02:02:00,
2013-01-05 21:17:00,35.2,27.0,28.39,East,88,0.0,2.0,73,0.00,,,0.00,weatherlink.com 1.10,2013-01-06 02:17:00,
2013-01-05 21:32:00,35.5,28.0,28.38,East,89,1.0,2.0,75,0.00,,,0.00,weatherlink.com 1.10,2013-01-06 02:32:00,
2013-01-05 21:47:00,36.1,27.0,28.37,ENE,77,0.0,2.0,69,0.00,,,0.00,weatherlink.com 1.10,2013-01-06 02:47:00,
2013-01-05 22:02:00,35.4,28.0,28.36,ENE,77,0.0,2.0,75,0.00,,,0.00,weatherlink.com 1.10,2013-01-06 03:02:00,
2013-01-05 22:17:00,35.1,29.0,28.36,East,89,0.0,1.0,77,0.00,,,0.00,weatherlink.com 1.10,2013-01-06 03:17:00,
2013-01-05 22:32:00,35.1,28.0,28.35,East,91,1.0,2.0,76,0.00,,,0.00,weatherlink.com 1.10,2013-01-06 03:32:00,
2013-01-05 22:47:00,34.6,28.0,28.38,East,89,0.0,1.0,78,0.00,,,0.00,weatherlink.com 1.10,2013-01-06 03:47:00,
2013-01-05 23:02:00,34.6,28.0,28.36,East,91,0.0,1.0,76,0.00,,,0.00,weatherlink.com 1.10,2013-01-06 04:02:00,
2013-01-05 23:17:00,34.9,29.0,28.36,East,92,0.0,0.0,79,0.00,,,0.00,weatherlink.com 1.10,2013-01-06 04:17:00,
2013-01-05 23:32:00,34.9,29.0,28.34,East,84,0.0,2.0,78,0.00,,,0.00,weatherlink.com 1.10,2013-01-06 04:32:00,